Weather in Cherny Yar

Russia / Astrakhan Oblast     48°03′46″N   46°07′09″E
temp.,
°C
wind,
m/s
gust,
m/s
humid.,
%
clouds,
%
prec.,
mm/h
press.,
hPa
HPBL,
m
1 march, mon
mon101:00−1nw4678100 0.0 1018714
04:00−2n2384100 0.0 1020289
07:00−2n2388100 0.0 1021216
10:00−1nne2376100 0.1 1023363
13:00+1nnw336159 0.0 1024660
16:00+2nnw345945 0.0 1024898
19:00−1n356837 0.0 1025109
22:00−2nne126719 0.0 102729
2 march, tue
tue201:00−2wnw12660 0.0 102626
04:00−2wsw23670 0.0 102687
07:00−2wsw36790 0.0 1025171
10:00+1w7107010 0.0 1025816
13:00+3wsw8116194 0.0 10221113
16:00+4wsw9126397 0.0 10191342
19:00+2wsw71373100 0.0 1017674
22:00+2wsw81574100 0.0 1016755
3 march, wed
wed301:000wsw91497100 0.7 1013665
04:00+1wsw81397100 1.9 1011668
07:00+1w81397100 0.9 1009677
10:00+1wnw61097100 1.8 1010518
13:00+2nw6981100 0.2 1010895
16:00+3nw91168100 0.4 10121323
19:000nw51178100 0.1 1015501
22:00−2nw7127387 0.2 1018747
4 march, thu
thu401:00−3nw510790 0.0 1019803
04:00−3wnw511770 0.0 1021565
07:00−2w6107724 0.0 1022414
10:00+1w7106812 0.0 1023738
13:00+4w8116066 0.0 10221294
16:00+5wsw8115663 0.0 10201320
19:00+2sw511710 0.0 1019231
22:00+1sw612770 0.0 1020274
5 march, fri
fri501:00+1sw714770 0.0 1019332
04:00+1sw715790 0.0 1018371
07:00+1sw7158010 0.0 1018386
10:00+3sw8126848 0.0 1018532
13:00+7sw9116221 0.0 1017970
16:00+8wsw8115610 0.0 10161189
19:00+5sw510680 0.0 1016188
22:00+4sw59790 0.0 1018166